Vorticity
8 7 7 6 6 5 4 4 3 3 3 3 4 4 5 5 5 6 6 7 7 8 8 7 7 7 8 7 7 7 8 9 8 8 7 7 7 8 8 7 6 6 6 7 8 7 8 8 8 8 8 9
4 4 4 4 4 4 4 4 3 3 3 3 3 2 2 2 3 3 4 5 5 5 6 6 6 6 7 7 7 7 6 7 8 8 8 8 8 8 8 9 8 6 5 6 8 8 8 8 9 9 9 9
2 2 2 2 2 2 2 2 2 2 2 2 2 2 2 2 2 2 3 3 3 4 4 4 4 4 4 5 6 7 6 6 7 7 7 7 7 7 7 8 9 8 6 6 7 8 9 8 8 8 9 10
3 3 3 3 3 3 3 3 2 2 2 2 1 2 2 2 2 2 2 3 3 4 4 4 3 4 4 4 4 4 5 5 5 6 7 7 6 6 7 7 8 8 8 8 7 7 9 10 9 8 7 8
3 3 3 3 3 3 3 3 3 3 3 3 2 2 2 2 2 2 2 2 3 3 3 4 3 4 4 4 4 4 4 4 4 4 5 7 6 6 6 7 7 7 7 7 8 8 7 9 9 10 8 7
1 1 1 1 1 2 2 3 3 4 5 5 5 5 5 5 4 4 3 3 3 3 3 3 4 3 4 4 4 4 4 4 4 3 3 4 6 6 5 6 7 7 7 6 7 8 8 8 8 10 10 9
2 3 3 4 4 5 5 6 6 7 7 7 8 8 8 8 7 7 6 6 5 5 4 4 4 4 4 4 4 4 4 4 4 4 3 3 4 4 4 4 5 6 7 7 6 6 8 9 9 9 10 10
6 6 7 7 8 8 8 8 8 8 8 8 8 8 8 7 8 8 7 7 6 6 6 5 4 4 4 4 4 4 4 4 4 4 3 3 3 3 4 4 4 4 4 6 6 6 6 7 9 9 10 10
8 9 9 9 9 9 8 8 8 7 7 7 7 6 6 6 6 6 6 6 6 6 6 6 6 5 5 4 3 3 4 4 4 5 4 3 3 2 3 4 4 4 3 4 4 6 6 6 7 8 10 11
8 8 8 8 7 7 6 6 6 5 5 5 5 5 5 5 5 5 5 5 5 5 5 6 6 6 6 6 5 5 4 4 4 5 5 6 5 3 3 3 3 4 4 4 3 4 5 5 6 7 8 11
6 6 5 5 5 5 5 4 5 4 4 4 4 5 5 5 5 5 6 6 6 6 6 6 6 6 6 6 6 6 6 5 5 4 5 6 7 7 5 4 4 4 4 4 4 3 3 4 5 6 7 8
5 5 4 4 4 4 5 5 5 5 5 5 4 4 4 5 5 5 5 6 6 6 7 7 7 7 6 6 6 6 6 6 6 5 5 4 5 7 7 8 6 5 5 4 5 4 4 3 3 5 6 7
5 5 5 5 5 5 5 5 5 5 5 5 5 5 5 5 6 6 7 7 7 7 7 7 7 7 7 7 7 7 7 7 7 7 6 6 5 5 6 8 8 7 7 5 5 5 5 5 3 3 5 7
5 5 5 6 6 5 5 5 5 5 6 6 6 6 6 7 7 8 8 9 10 10 10 10 10 10 10 10 9 9 8 8 8 7 7 7 7 6 6 6 7 8 8 8 7 5 5 5 5 4 3 5
5 5 5 5 6 6 6 6 6 7 7 8 9 10 11 12 13 13 14 14 14 15 15 16 16 16 15 15 15 14 12 11 10 9 8 8 8 8 8 7 7 7 7 8 8 7 6 5 5 5 4 4
5 5 5 6 6 7 8 9 10 11 11 12 13 15 16 17 19 20 21 21 21 21 21 21 22 23 23 22 22 21 21 19 17 15 13 11 10 9 9 9 8 8 7 7 8 9 8 6 5 4 5 5
5 6 6 6 7 8 9 11 12 14 15 17 19 20 21 21 21 21 22 22 23 24 24 23 23 24 24 24 25 25 25 26 26 25 23 20 17 14 12 11 11 10 9 8 7 8 9 9 7 4 3 5
5 6 7 8 9 10 12 13 15 17 18 20 21 22 22 22 21 20 19 19 19 18 19 19 19 20 20 21 21 22 22 23 25 26 27 27 25 24 21 17 15 13 12 11 10 9 8 9 9 7 4 2
7 8 9 11 12 14 15 16 17 18 18 18 18 18 18 18 18 18 18 17 16 15 14 13 13 13 13 14 15 16 16 16 17 19 21 23 23 25 26 25 23 20 18 15 14 12 11 10 9 8 7 4
9 10 11 13 14 16 17 18 18 18 17 17 16 15 15 15 15 16 16 15 14 13 12 11 10 8 7 8 8 9 10 10 11 12 14 16 17 18 20 22 23 24 24 22 19 17 15 13 11 9 8 8
11 12 13 14 16 17 17 18 17 17 17 16 16 15 14 14 13 12 10 9 8 7 8 7 7 6 5 5 5 5 6 7 7 7 8 10 12 14 15 16 18 19 21 22 24 23 21 19 15 12 10 9
11 12 13 15 16 16 16 15 15 15 15 16 15 14 13 12 10 8 6 5 4 4 4 5 5 6 6 6 6 6 7 9 9 10 10 9 9 11 11 12 13 14 16 17 19 21 23 25 23 18 13 11
10 12 13 14 14 14 14 14 14 15 15 14 13 12 10 9 7 6 5 4 3 3 3 4 5 8 10 11 11 12 13 13 14 15 16 16 16 15 15 15 13 11 12 14 15 16 17 21 26 27 22 14
11 12 12 12 11 12 14 14 15 15 14 12 11 9 7 6 6 4 4 3 2 2 1 4 7 11 13 14 14 15 15 15 16 16 17 18 18 18 18 20 21 18 14 13 13 14 15 15 17 24 28 25
11 11 11 11 11 13 14 14 15 14 12 10 9 7 5 5 4 4 3 3 2 2 4 8 10 10 9 10 12 13 14 14 15 15 15 15 15 14 14 13 18 22 20 18 16 13 13 16 16 17 21 27
12 12 11 11 12 13 14 14 13 12 11 9 8 5 4 4 3 3 2 2 4 6 9 9 7 6 6 9 11 13 14 15 15 15 15 14 13 12 12 11 11 16 19 20 20 18 13 11 15 17 17 20
12 12 11 12 13 13 14 14 12 12 10 9 8 5 3 3 3 2 3 5 8 9 8 5 4 6 9 11 12 13 13 13 13 13 13 13 12 9 8 8 9 13 17 18 18 21 22 17 13 13 15 17
12 12 12 13 13 13 13 13 12 11 10 9 8 6 4 3 3 4 6 8 9 7 5 5 7 9 12 13 12 12 11 11 10 9 9 9 9 10 7 6 5 9 16 20 18 17 21 24 21 17 14 13
12 12 13 13 13 13 12 12 11 10 10 10 8 6 5 4 5 7 8 7 5 5 6 8 10 12 12 12 11 10 9 8 7 6 6 6 6 7 8 7 4 4 8 16 19 18 19 21 23 23 21 17
11 13 13 13 12 11 10 10 10 9 10 10 9 7 6 5 6 6 5 4 4 5 7 8 9 10 9 9 8 7 7 6 5 5 4 4 4 4 5 6 5 4 4 8 13 16 18 20 23 24 23 24
12 14 14 12 11 9 8 9 9 10 10 10 8 7 6 6 5 4 3 4 5 5 6 6 7 7 7 6 6 6 5 5 5 4 4 4 3 3 3 4 5 4 4 5 8 10 13 16 21 25 23 25
Height
5768 5768 5767 5767 5766 5765 5765 5764 5763 5762 5762 5761 5760 5759 5758 5757 5756 5756 5755 5755 5754 5754 5754 5753 5753 5753 5752 5751 5751 5750 5749 5748 5748 5749 5749 5749 5749 5749 5749 5749 5751 5751 5748 5748 5748 5749 5749 5750 5751 5751 5752 5752
5764 5764 5763 5762 5762 5761 5760 5759 5758 5757 5757 5756 5755 5754 5753 5752 5751 5751 5750 5750 5749 5749 5749 5748 5747 5747 5747 5746 5745 5745 5744 5743 5742 5743 5743 5743 5742 5742 5743 5743 5744 5744 5742 5742 5743 5743 5743 5744 5745 5745 5746 5747
5760 5759 5759 5758 5757 5756 5755 5754 5753 5752 5751 5750 5749 5749 5748 5747 5746 5746 5745 5745 5744 5744 5743 5743 5742 5741 5741 5740 5740 5739 5739 5738 5737 5737 5737 5737 5737 5736 5736 5737 5738 5738 5737 5736 5737 5737 5738 5738 5738 5740 5741 5741
5756 5755 5754 5753 5752 5751 5749 5748 5748 5746 5746 5745 5744 5743 5742 5741 5741 5740 5740 5739 5739 5738 5738 5737 5736 5735 5734 5734 5734 5733 5732 5732 5731 5731 5731 5731 5731 5731 5731 5731 5731 5732 5731 5730 5731 5731 5732 5732 5732 5733 5735 5736
5751 5750 5749 5748 5746 5745 5744 5743 5742 5741 5740 5739 5738 5737 5737 5736 5735 5734 5733 5733 5733 5732 5732 5731 5730 5729 5729 5727 5727 5727 5726 5725 5725 5725 5724 5724 5725 5725 5725 5725 5725 5726 5726 5725 5724 5725 5726 5726 5726 5726 5728 5729
5746 5744 5743 5742 5741 5740 5739 5738 5737 5736 5735 5734 5733 5732 5731 5730 5729 5728 5727 5727 5726 5726 5725 5725 5724 5723 5722 5721 5720 5720 5719 5719 5718 5718 5718 5717 5717 5718 5718 5718 5719 5719 5719 5719 5719 5719 5719 5719 5720 5720 5721 5722
5740 5739 5738 5737 5736 5734 5733 5732 5731 5730 5729 5728 5727 5726 5725 5724 5723 5722 5721 5720 5720 5719 5718 5718 5717 5716 5715 5715 5714 5713 5712 5711 5711 5711 5711 5711 5710 5710 5710 5711 5712 5712 5713 5713 5713 5712 5712 5713 5713 5714 5714 5715
5734 5733 5732 5731 5730 5729 5727 5726 5725 5724 5722 5721 5720 5719 5718 5717 5716 5715 5714 5713 5712 5711 5711 5710 5710 5709 5708 5708 5707 5706 5705 5704 5704 5703 5703 5703 5703 5703 5703 5703 5704 5705 5705 5706 5706 5706 5706 5706 5707 5708 5708 5709
5729 5727 5726 5725 5724 5723 5721 5720 5719 5717 5716 5714 5713 5712 5711 5710 5709 5707 5706 5705 5704 5703 5703 5702 5701 5701 5700 5700 5699 5699 5698 5697 5696 5696 5695 5695 5695 5695 5695 5695 5695 5696 5697 5699 5699 5699 5699 5700 5701 5701 5702 5703
5723 5722 5720 5719 5718 5716 5715 5713 5712 5711 5709 5707 5706 5704 5703 5702 5701 5700 5698 5697 5696 5695 5694 5693 5692 5692 5691 5691 5690 5690 5689 5689 5689 5688 5687 5687 5686 5686 5686 5687 5687 5688 5689 5690 5691 5692 5692 5693 5694 5695 5695 5697
5717 5716 5714 5713 5711 5709 5708 5706 5704 5703 5702 5700 5698 5697 5695 5694 5693 5691 5690 5689 5688 5686 5685 5684 5683 5682 5681 5681 5680 5680 5680 5679 5679 5679 5679 5678 5678 5677 5677 5678 5679 5679 5680 5681 5682 5683 5684 5685 5687 5687 5689 5690
5711 5709 5707 5706 5704 5702 5700 5698 5696 5695 5693 5692 5690 5689 5687 5686 5684 5683 5682 5680 5679 5677 5676 5675 5674 5673 5672 5671 5670 5670 5669 5669 5669 5669 5669 5669 5669 5669 5668 5669 5669 5670 5671 5672 5673 5674 5675 5677 5679 5680 5681 5683
5704 5702 5700 5698 5696 5694 5692 5690 5688 5686 5685 5683 5682 5680 5679 5677 5675 5674 5672 5670 5669 5667 5666 5665 5664 5663 5662 5661 5660 5659 5659 5658 5658 5658 5659 5659 5659 5659 5659 5659 5660 5660 5661 5662 5664 5665 5666 5667 5670 5671 5673 5674
5697 5695 5693 5691 5689 5687 5685 5683 5681 5678 5677 5675 5673 5671 5670 5668 5666 5664 5662 5660 5658 5657 5655 5654 5653 5652 5651 5650 5650 5649 5648 5647 5647 5647 5647 5647 5648 5649 5649 5650 5650 5651 5652 5652 5654 5656 5657 5658 5660 5662 5664 5665
5691 5689 5686 5684 5682 5680 5677 5675 5673 5670 5668 5666 5663 5661 5660 5658 5655 5653 5651 5649 5647 5645 5644 5643 5642 5641 5640 5639 5638 5638 5637 5636 5636 5636 5636 5636 5636 5637 5638 5639 5640 5641 5642 5642 5643 5645 5648 5649 5650 5652 5654 5656
5684 5682 5679 5677 5674 5671 5669 5666 5664 5661 5658 5655 5653 5651 5649 5647 5645 5643 5641 5639 5637 5635 5633 5632 5630 5629 5628 5627 5626 5626 5625 5625 5624 5624 5625 5625 5625 5626 5627 5628 5629 5630 5632 5632 5633 5634 5637 5639 5640 5642 5644 5646
5677 5674 5671 5669 5666 5663 5660 5658 5655 5652 5648 5646 5643 5641 5638 5636 5635 5633 5631 5629 5627 5626 5624 5622 5621 5619 5618 5617 5616 5615 5615 5614 5613 5613 5613 5614 5614 5614 5615 5616 5617 5619 5620 5621 5622 5624 5626 5628 5630 5632 5633 5635
5669 5666 5663 5660 5658 5655 5652 5649 5646 5643 5640 5637 5634 5631 5629 5627 5625 5623 5622 5620 5618 5617 5615 5614 5612 5611 5609 5608 5607 5606 5605 5605 5604 5603 5603 5603 5603 5603 5604 5605 5606 5607 5608 5609 5611 5613 5615 5617 5619 5621 5623 5624
5661 5658 5655 5652 5649 5646 5643 5640 5637 5635 5632 5630 5627 5624 5621 5619 5617 5615 5613 5611 5610 5608 5607 5606 5605 5603 5602 5600 5599 5598 5597 5596 5595 5594 5593 5593 5593 5593 5593 5594 5595 5596 5597 5598 5599 5601 5603 5605 5607 5609 5611 5614
5652 5650 5647 5643 5640 5637 5634 5631 5629 5626 5625 5622 5620 5617 5615 5612 5610 5608 5606 5604 5602 5601 5599 5598 5597 5596 5595 5594 5592 5591 5589 5588 5587 5586 5585 5583 5583 5584 5583 5584 5585 5586 5587 5587 5587 5589 5590 5592 5595 5597 5599 5602
5644 5641 5638 5635 5632 5629 5626 5623 5620 5618 5616 5614 5612 5610 5608 5606 5603 5601 5600 5598 5596 5594 5592 5591 5589 5588 5587 5586 5585 5583 5582 5581 5579 5578 5577 5575 5574 5573 5574 5574 5575 5576 5577 5577 5578 5578 5578 5580 5582 5585 5587 5590
5635 5633 5630 5627 5625 5622 5619 5616 5613 5610 5608 5606 5605 5603 5601 5600 5598 5596 5594 5592 5590 5588 5586 5584 5582 5580 5579 5578 5577 5575 5574 5572 5571 5570 5569 5568 5566 5564 5563 5564 5565 5566 5567 5567 5568 5569 5568 5568 5570 5572 5575 5578
5627 5625 5622 5620 5617 5614 5612 5609 5606 5603 5601 5599 5597 5596 5594 5593 5591 5590 5588 5586 5584 5582 5580 5578 5575 5573 5571 5569 5568 5566 5565 5564 5562 5561 5560 5559 5557 5555 5553 5553 5554 5556 5557 5557 5558 5559 5559 5558 5558 5560 5562 5565
5620 5618 5615 5612 5610 5607 5604 5602 5599 5596 5594 5593 5591 5589 5587 5586 5585 5583 5581 5580 5578 5576 5573 5571 5569 5566 5563 5562 5560 5558 5556 5555 5553 5553 5552 5550 5549 5548 5545 5543 5543 5545 5546 5547 5548 5549 5549 5549 5548 5549 5550 5553
5614 5611 5608 5606 5603 5601 5598 5595 5593 5590 5588 5586 5584 5582 5580 5579 5577 5576 5574 5573 5571 5569 5567 5564 5562 5559 5556 5554 5552 5550 5547 5545 5544 5543 5543 5542 5541 5539 5538 5536 5533 5534 5535 5536 5537 5538 5539 5539 5538 5538 5540 5542
5608 5604 5602 5599 5597 5594 5591 5588 5586 5584 5581 5579 5578 5575 5573 5571 5570 5569 5567 5565 5563 5561 5559 5557 5555 5552 5549 5547 5544 5542 5540 5537 5535 5534 5533 5533 5533 5531 5530 5528 5525 5524 5525 5526 5526 5526 5528 5529 5529 5529 5529 5531
5602 5598 5595 5592 5590 5587 5585 5582 5580 5577 5575 5573 5571 5568 5566 5564 5562 5561 5559 5557 5555 5553 5551 5549 5547 5544 5542 5539 5537 5535 5532 5530 5527 5525 5524 5523 5523 5523 5521 5519 5516 5514 5513 5515 5516 5515 5516 5517 5518 5520 5520 5520
5595 5592 5588 5585 5583 5581 5578 5576 5573 5571 5569 5567 5565 5562 5559 5557 5555 5553 5551 5549 5547 5545 5542 5540 5538 5536 5534 5531 5529 5527 5525 5523 5520 5518 5516 5514 5513 5512 5512 5511 5509 5505 5502 5503 5504 5504 5504 5504 5505 5508 5509 5511
5588 5585 5581 5579 5576 5574 5572 5569 5566 5564 5562 5560 5557 5555 5552 5549 5547 5545 5543 5541 5538 5536 5534 5532 5529 5527 5526 5523 5521 5519 5517 5515 5512 5510 5508 5506 5503 5502 5502 5502 5501 5498 5494 5492 5492 5492 5492 5492 5493 5495 5495 5498
5581 5578 5575 5572 5570 5567 5565 5563 5560 5557 5555 5553 5550 5548 5545 5542 5540 5537 5536 5533 5530 5528 5525 5523 5521 5518 5517 5515 5513 5511 5509 5507 5504 5502 5500 5497 5495 5493 5491 5491 5491 5489 5486 5483 5482 5480 5480 5480 5480 5481 5482 5483
5573 5571 5568 5565 5563 5560 5558 5556 5553 5550 5548 5546 5543 5541 5538 5535 5532 5530 5528 5525 5522 5519 5517 5514 5512 5510 5508 5506 5504 5502 5500 5498 5496 5493 5491 5489 5487 5484 5481 5480 5479 5479 5477 5474 5472 5470 5468 5468 5467 5467 5469 5468